Hourly Data Report for October 22, 2015

All times are specified in Local Standard Time (LST). Add 1 hour to adjust for Daylight Saving Time where and when it is observed.

EUREKA CLIMATE
NUNAVUT

79°59'21.000" N
85°56'02.000" W
10.00 m
2401199
71613
NEK

Download Data

Hourly Data (October 2015)
Hourly Data Report for October 22, 2015
Temp Definition
°C
Dew Point Temp Definition
°C
Rel Hum Definition
%
Wind Dir Definition
10's deg

Wind Spd Definition
km/h
Visibility Definition
km
Stn Press Definition
kPa
Hmdx Definition


Wind Chill Definition


Weather Definition


TIME
00:00 -25.6 -27.9 82 11 6   100.00   -31 LegendNANA
01:00 -26.3 -28.7 80 5 3   100.02   -29 LegendNANA
02:00 -26.5 -28.9 80 12 2   100.05   -29 LegendNANA
03:00 -26.3 -28.6 81 11 4   100.09   -30 LegendNANA
04:00 -26.9 -29.4 80 11 7   100.12   -34 LegendNANA
05:00 -27.3 -29.8 80 11 3   100.15   -30 LegendNANA
06:00 -27.6 -30.0 80 11 2   100.18   -30 LegendNANA
07:00 -28.1 -30.5 80 1 9   100.22   -36 LegendNANA
08:00 -27.8 -30.3 79 8 3   100.24   -31 LegendNANA
09:00 -28.1 -30.6 79 3 2   100.27   -30 LegendNANA
10:00 -28.5 -31.0 79 12 4   100.29   -33 LegendNANA
11:00 -28.9 -31.5 78 11 10   100.33   -38 LegendNANA
12:00 -29.3 -32.0 78 11 10   100.37   -38 LegendNANA
13:00 -28.8 -31.4 78 9 2   100.41   -31 LegendNANA
14:00 -28.9 -31.5 78 28 3   100.44   -32 LegendNANA
15:00 -29.1 -31.7 78 11 7   100.49   -36 LegendNANA
16:00 -28.3 -30.5 81 22 3   100.54   -32 LegendNANA
17:00 -28.2 -31.3 75 19 7   100.57   -35 LegendNANA
18:00 -21.8 -23.8 84 26 18   100.62   -32 LegendNANA
19:00 -23.2 -25.4 82 30 15   100.65   -33 LegendNANA
20:00 -22.2 -24.9 79 30 22   100.67   -34 LegendNANA
21:00 -22.2 -24.6 81 29 27   100.69   -35 LegendNANA
22:00 -21.7 -24.0 81 29 30   100.73   -35 LegendNANA
23:00 -21.8 -24.2 81 29 26   100.76   -34 LegendNANA

Notes on Data Quality.

Legend

  • E = Estimated
  • M = Missing
  • NA = Not Available
  • ‡ = Partner data that is not subject to review by the National Climate Archives
Date modified: